Wind_Speed
5 4 3 3 3 3 4 5 6 6 5 5 5 4 4 4 3 3 2 2 2 2 2 3 3 3 3 2 2 2 3 3 4 4 4 5 5 6 6 6 6 7 7
7 5 5 5 5 5 5 6 7 7 7 6 6 6 6 5 4 4 4 3 3 2 2 3 2 2 2 2 2 1 1 2 2 3 3 3 4 5 5 6 6 6 6
8 7 7 7 7 6 7 7 7 7 8 8 8 7 7 6 6 5 5 5 4 4 3 3 3 3 2 2 2 2 1 1 1 1 2 2 3 3 4 5 5 6 6
8 8 8 8 8 8 8 9 9 9 9 9 9 8 8 7 7 7 6 6 6 5 5 4 4 4 3 3 3 3 2 2 1 1 0 1 1 2 3 4 4 5 5
9 9 9 9 9 9 10 10 10 10 10 10 10 9 9 9 9 8 8 7 7 7 6 6 6 5 5 4 4 4 4 4 3 3 2 1 1 1 2 2 3 4 4
10 11 10 11 11 11 11 11 12 12 11 11 11 11 10 10 10 10 9 9 9 8 8 7 7 7 7 7 7 6 6 6 5 5 4 4 3 2 2 2 2 3 3
11 11 12 12 12 13 13 13 13 13 13 13 12 12 12 12 12 11 11 10 10 10 9 9 9 9 9 9 9 8 8 7 7 7 6 6 5 4 3 3 2 3 3
12 13 14 13 14 14 14 15 15 15 15 15 15 14 14 13 13 13 12 12 11 11 11 11 11 11 11 11 11 11 10 9 9 8 8 8 7 6 5 4 4 4 4
14 14 15 16 16 16 16 17 17 16 17 17 17 17 17 16 16 15 14 14 14 13 13 13 13 13 13 13 13 12 12 12 12 11 10 9 9 8 7 7 6 6 5
16 16 17 17 17 18 18 17 17 18 19 19 20 20 20 20 19 18 17 17 16 16 16 15 15 14 14 14 14 14 14 14 14 13 12 12 11 11 10 9 9 8 8
17 18 18 19 20 19 18 17 17 18 19 21 22 22 23 23 22 21 21 20 19 18 18 18 17 16 16 16 16 16 16 16 16 15 14 14 14 13 13 12 11 11 10
18 19 20 20 21 20 20 19 19 19 20 22 22 23 24 25 24 23 23 22 21 21 20 20 20 19 19 18 18 18 18 18 18 17 16 17 17 16 15 15 14 13 13
20 21 20 21 22 21 21 21 20 21 21 22 23 24 25 25 26 25 24 24 23 22 22 22 22 22 21 21 20 20 20 19 19 19 18 19 19 19 18 18 17 16 16
20 20 21 22 22 22 21 20 19 21 22 22 23 23 24 24 24 24 25 25 24 22 22 22 23 22 22 22 21 21 21 21 21 20 19 20 20 20 21 20 19 19 19
20 21 21 20 20 20 20 19 20 21 21 22 22 22 23 24 22 22 23 23 22 22 22 23 23 23 23 23 22 22 22 22 23 22 20 21 22 22 24 23 22 22 22
19 19 19 19 20 20 19 19 20 20 20 20 20 20 21 20 19 20 20 21 21 21 21 22 23 23 24 23 23 23 23 23 24 24 23 22 23 24 24 25 25 25 25
21 20 19 19 20 20 19 20 19 18 17 18 18 18 19 18 19 19 19 21 22 22 22 23 24 24 24 24 24 23 24 24 23 24 24 23 23 24 25 26 28 27 27
21 21 20 19 19 19 19 18 17 16 15 16 17 17 17 17 18 19 20 21 21 21 22 22 23 23 24 25 25 25 25 24 25 25 25 25 24 25 26 27 28 29 30
20 20 19 18 17 16 16 15 14 14 15 16 16 17 17 18 19 20 20 21 22 22 23 23 23 24 25 26 26 26 26 26 26 26 26 27 27 26 27 28 28 29 31
18 18 17 17 15 14 13 13 13 14 15 16 17 18 18 19 20 20 21 21 23 24 24 25 26 26 27 28 29 29 28 28 28 28 28 28 28 28 28 28 29 29 30
16 16 16 14 13 13 12 13 14 15 16 17 18 18 19 20 21 21 22 23 24 25 26 27 27 27 28 29 30 30 30 30 30 29 29 30 30 30 30 29 29 29 30
13 13 13 12 12 11 12 14 15 16 16 18 19 19 20 21 21 22 22 23 25 26 26 27 28 28 29 30 30 30 31 31 32 31 31 31 31 31 31 31 30 30 30
9 10 10 10 10 11 12 14 15 17 18 19 20 20 21 22 22 23 24 24 25 26 27 27 27 28 29 29 30 30 30 31 32 32 33 33 33 33 32 33 32 31 31
9 9 10 10 10 12 13 15 17 18 19 20 21 21 22 22 23 24 24 25 25 26 26 26 26 27 28 29 30 30 30 31 32 32 33 33 33 33 34 34 33 33 33
8 8 9 10 11 13 15 16 18 19 20 20 21 22 23 24 24 24 24 25 25 26 26 26 26 27 28 29 30 31 31 32 32 33 34 35 35 34 35 35 35 35 34
8 8 9 11 13 14 16 17 19 20 20 21 22 23 24 24 24 24 24 25 25 26 26 26 27 28 29 29 30 31 32 32 33 34 35 35 36 36 36 36 36 36 36
Wind_Direction
305 300 301 304 304 313 318 320 326 326 322 319 319 319 320 321 326 336 342 356 11 20 26 33 42 50 56 59 63 65 69 69 69 73 76 77 77 75 75 79 89 94 99
298 292 297 297 297 300 303 307 315 318 316 311 309 310 308 308 310 313 316 320 324 336 348 355 3 18 24 22 26 37 52 63 65 67 70 75 78 78 79 81 89 100 104
300 295 295 296 294 297 302 304 308 310 311 306 302 304 303 301 302 302 300 303 305 307 315 326 332 339 342 339 335 330 319 339 44 63 70 74 79 81 85 85 89 92 107
299 296 294 296 296 297 298 300 301 303 304 303 299 298 297 295 296 295 292 292 294 296 299 304 308 307 307 308 305 298 291 283 274 262 225 105 95 95 97 96 97 97 106
297 296 295 296 300 299 297 296 298 297 297 297 294 292 292 291 292 293 290 288 289 289 291 293 294 291 289 291 292 289 282 275 267 260 248 227 196 141 127 119 115 110 114
297 297 298 300 302 302 299 298 296 295 292 291 289 288 288 288 290 290 290 287 285 285 284 286 287 286 281 280 281 281 281 273 266 261 255 245 235 216 187 167 151 139 134
296 298 299 299 301 302 298 296 293 292 290 287 285 285 284 284 286 288 289 287 285 283 280 280 281 284 281 277 276 274 276 273 266 261 257 252 244 234 222 209 194 181 166
297 298 296 297 299 297 294 291 289 287 287 285 283 282 281 280 281 283 284 284 284 283 279 277 277 277 278 278 276 272 271 271 267 261 253 251 246 241 235 229 220 208 195
296 296 295 294 298 296 292 289 285 284 284 281 280 278 276 276 274 274 275 277 278 280 278 275 274 275 275 275 275 274 271 269 265 262 255 251 248 245 239 235 231 224 215
292 294 295 295 295 295 291 288 285 282 281 279 277 276 274 272 271 270 269 271 273 275 275 274 272 274 273 273 273 273 272 269 264 261 255 250 247 245 242 238 235 232 227
290 292 296 295 296 295 289 283 284 284 282 280 276 273 271 269 268 267 265 267 268 270 271 272 271 272 272 271 270 270 271 269 263 260 255 250 247 244 242 240 237 235 233
290 292 295 295 295 296 293 286 284 283 282 282 279 273 270 270 267 266 264 265 265 264 266 268 269 271 270 269 268 268 268 269 263 259 257 255 248 244 241 240 238 236 235
288 291 295 296 296 295 293 288 284 284 284 285 282 278 275 274 272 270 268 268 266 264 264 264 266 268 268 267 266 265 266 267 264 260 257 255 251 246 241 240 239 238 236
285 290 293 294 296 297 297 291 292 293 289 285 285 285 282 280 276 276 274 273 269 269 268 266 266 268 267 266 264 263 265 265 264 260 254 254 253 249 242 240 239 238 238
282 290 291 295 298 298 298 297 296 293 289 288 286 284 283 283 282 282 280 275 271 270 268 267 267 269 270 267 266 265 266 263 263 257 255 255 254 251 243 242 242 240 238
282 288 293 296 296 296 297 299 298 294 292 290 288 287 287 287 287 288 287 282 279 276 272 269 270 271 272 271 267 266 264 265 262 259 257 254 254 252 246 243 243 242 239
285 288 293 294 294 294 296 297 296 294 294 295 292 290 289 289 289 290 291 289 282 277 276 274 272 272 271 271 269 269 266 262 261 259 258 254 254 253 249 244 243 243 240
285 289 295 297 298 297 295 296 296 296 297 299 300 295 293 292 291 292 291 289 282 280 278 276 275 276 275 271 270 268 267 264 260 258 259 257 254 254 253 250 246 243 240
285 287 291 293 296 299 298 299 299 300 301 302 302 300 296 295 293 292 290 289 284 284 283 280 278 276 274 271 270 271 269 266 262 260 260 258 257 256 255 254 250 246 242
285 286 286 291 296 299 298 299 302 304 303 304 304 303 301 299 297 294 289 286 285 284 283 281 279 276 274 272 271 270 269 265 262 260 260 258 257 256 255 253 252 248 243
284 286 286 287 295 302 306 306 307 307 305 306 306 305 304 303 299 297 293 289 286 285 283 281 279 276 275 272 270 269 268 266 262 260 258 257 256 255 255 253 253 250 244
291 289 288 295 300 304 309 310 311 310 310 310 310 309 308 307 305 303 299 295 291 288 286 283 280 277 275 273 271 269 267 265 261 260 259 257 256 254 253 253 253 251 246
295 295 296 300 307 311 314 315 315 315 313 312 312 311 310 309 307 305 302 298 295 291 288 285 282 279 276 274 271 269 268 266 264 261 259 257 255 254 254 253 252 250 248
301 303 308 313 319 320 321 320 319 318 317 316 315 314 313 311 309 307 304 301 298 295 292 288 284 281 278 276 273 271 269 267 265 262 259 257 254 255 254 251 250 250 248
323 321 325 325 324 324 324 324 323 322 321 319 317 316 315 314 312 310 308 306 303 300 297 293 288 284 281 278 276 273 270 267 265 264 262 258 255 255 253 250 248 248 246
337 336 333 331 330 329 328 327 325 323 323 322 320 319 318 317 316 314 311 309 306 303 300 296 292 288 284 281 278 275 272 269 267 264 263 260 258 255 253 250 248 248 247
Height
5905 5904 5904 5904 5904 5904 5904 5904 5903 5903 5902 5902 5901 5901 5900 5900 5900 5899 5899 5898 5898 5897 5897 5897 5897 5897 5897 5897 5896 5897 5896 5896 5897 5897 5897 5897 5897 5898 5898 5898 5898 5899 5899
5903 5903 5904 5904 5904 5903 5903 5903 5903 5902 5902 5901 5901 5901 5900 5900 5900 5900 5899 5899 5898 5898 5898 5897 5897 5897 5897 5897 5897 5897 5897 5897 5897 5897 5898 5898 5899 5899 5899 5899 5900 5900 5901
5902 5903 5903 5903 5903 5902 5902 5902 5902 5901 5901 5901 5901 5900 5900 5900 5900 5899 5899 5899 5898 5898 5898 5898 5897 5897 5897 5897 5897 5897 5898 5898 5898 5898 5898 5899 5899 5900 5900 5901 5901 5901 5902
5901 5902 5902 5902 5902 5901 5901 5901 5901 5900 5900 5900 5900 5899 5899 5899 5899 5899 5898 5898 5898 5898 5898 5898 5898 5897 5897 5897 5897 5898 5898 5898 5898 5899 5899 5899 5900 5901 5901 5902 5902 5903 5904
5900 5900 5900 5900 5900 5900 5900 5900 5899 5899 5899 5899 5899 5898 5898 5898 5898 5898 5898 5898 5898 5898 5898 5897 5897 5897 5897 5897 5897 5897 5898 5898 5899 5899 5899 5900 5900 5901 5902 5903 5903 5904 5905
5899 5899 5899 5899 5899 5898 5898 5898 5898 5898 5897 5897 5897 5897 5897 5897 5897 5897 5897 5897 5897 5897 5897 5897 5897 5897 5897 5897 5897 5897 5897 5898 5898 5899 5899 5900 5900 5901 5902 5903 5904 5905 5906
5897 5897 5897 5897 5897 5896 5896 5896 5896 5896 5895 5895 5895 5895 5895 5895 5895 5895 5895 5895 5895 5895 5895 5896 5896 5896 5896 5896 5896 5896 5896 5897 5897 5898 5899 5900 5900 5901 5902 5903 5904 5905 5906
5894 5895 5895 5894 5894 5894 5894 5893 5893 5893 5893 5893 5893 5893 5893 5893 5893 5893 5893 5893 5894 5894 5894 5894 5894 5894 5894 5894 5894 5895 5895 5896 5896 5897 5898 5899 5900 5901 5902 5903 5904 5905 5906
5891 5891 5892 5892 5891 5891 5891 5890 5890 5890 5890 5890 5891 5891 5891 5891 5891 5891 5891 5891 5891 5892 5892 5892 5892 5892 5893 5893 5893 5893 5893 5894 5894 5896 5897 5898 5899 5900 5901 5902 5903 5905 5906
5889 5889 5889 5889 5888 5888 5887 5887 5887 5887 5887 5887 5887 5887 5888 5888 5888 5888 5888 5889 5889 5889 5889 5889 5889 5890 5890 5891 5891 5891 5891 5892 5892 5893 5895 5896 5897 5898 5900 5901 5902 5904 5905
5885 5886 5886 5885 5885 5885 5884 5884 5883 5883 5883 5883 5883 5884 5884 5884 5884 5885 5885 5885 5885 5886 5886 5886 5887 5887 5888 5888 5888 5889 5889 5889 5890 5891 5892 5892 5894 5896 5898 5899 5901 5902 5904
5882 5882 5882 5882 5881 5881 5880 5879 5879 5879 5879 5879 5879 5879 5879 5880 5880 5880 5880 5881 5881 5881 5882 5883 5883 5884 5884 5885 5885 5886 5886 5886 5887 5887 5889 5890 5892 5893 5895 5897 5899 5901 5902
5878 5878 5878 5878 5877 5877 5877 5876 5875 5875 5875 5875 5875 5875 5875 5875 5875 5875 5875 5876 5876 5877 5877 5878 5879 5880 5880 5881 5882 5882 5882 5883 5883 5884 5886 5887 5888 5890 5892 5894 5896 5898 5900
5874 5874 5874 5874 5873 5873 5872 5871 5871 5871 5871 5871 5870 5870 5869 5870 5870 5870 5870 5871 5871 5872 5872 5873 5874 5875 5876 5876 5877 5877 5878 5878 5879 5880 5882 5883 5883 5885 5888 5890 5892 5895 5897
5870 5871 5871 5871 5870 5869 5869 5868 5867 5866 5866 5866 5865 5864 5864 5864 5864 5865 5865 5865 5865 5866 5867 5868 5869 5870 5871 5871 5872 5873 5873 5874 5874 5875 5877 5878 5879 5881 5884 5886 5889 5891 5893
5867 5867 5867 5867 5867 5866 5865 5865 5864 5862 5862 5861 5861 5860 5860 5860 5860 5861 5861 5861 5861 5861 5861 5862 5863 5865 5866 5867 5867 5868 5869 5869 5869 5870 5872 5873 5874 5876 5879 5881 5884 5886 5889
5864 5864 5864 5864 5864 5863 5862 5861 5861 5860 5858 5858 5857 5857 5857 5857 5857 5857 5857 5857 5857 5857 5857 5857 5857 5858 5859 5861 5862 5863 5863 5864 5864 5865 5866 5868 5869 5871 5873 5876 5878 5881 5884
5860 5861 5861 5861 5860 5859 5858 5857 5857 5856 5856 5855 5854 5854 5854 5853 5853 5852 5853 5852 5852 5852 5852 5852 5852 5853 5854 5855 5856 5857 5857 5858 5859 5860 5861 5863 5864 5866 5868 5870 5872 5875 5878
5857 5858 5859 5858 5857 5856 5855 5854 5854 5853 5853 5852 5851 5851 5850 5849 5848 5848 5848 5847 5847 5847 5847 5847 5847 5847 5848 5848 5849 5850 5851 5852 5853 5854 5855 5857 5859 5860 5862 5864 5866 5868 5872
5855 5855 5856 5855 5854 5853 5853 5852 5851 5850 5850 5849 5848 5847 5846 5845 5844 5843 5843 5843 5842 5842 5842 5841 5841 5841 5841 5841 5842 5843 5844 5845 5845 5847 5848 5850 5852 5854 5856 5857 5860 5862 5865
5852 5852 5853 5852 5851 5851 5850 5849 5848 5847 5847 5846 5845 5843 5842 5841 5840 5838 5838 5837 5836 5836 5835 5835 5834 5834 5834 5834 5835 5836 5837 5837 5839 5840 5841 5843 5845 5847 5849 5851 5853 5855 5858
5850 5850 5850 5850 5849 5848 5848 5847 5846 5844 5843 5842 5841 5840 5838 5836 5835 5833 5832 5831 5830 5829 5828 5828 5827 5827 5827 5827 5828 5828 5829 5831 5831 5832 5834 5835 5837 5839 5841 5843 5846 5848 5851
5848 5848 5848 5848 5847 5846 5845 5844 5843 5841 5840 5839 5837 5835 5834 5832 5830 5828 5826 5825 5824 5823 5822 5821 5820 5819 5819 5819 5819 5820 5821 5822 5823 5824 5825 5827 5829 5831 5833 5835 5837 5840 5843
5847 5847 5846 5845 5844 5844 5843 5841 5840 5838 5836 5835 5833 5831 5829 5827 5825 5823 5821 5819 5817 5816 5814 5813 5812 5812 5811 5811 5811 5811 5812 5813 5814 5815 5816 5818 5819 5822 5824 5827 5829 5832 5835
5844 5844 5844 5843 5842 5841 5840 5838 5836 5835 5833 5831 5829 5826 5824 5822 5820 5818 5816 5813 5811 5809 5808 5806 5805 5804 5803 5803 5803 5803 5804 5804 5805 5806 5808 5809 5811 5813 5816 5818 5821 5824 5827
5843 5843 5842 5841 5840 5839 5837 5835 5833 5831 5829 5827 5825 5822 5820 5817 5815 5813 5810 5808 5806 5803 5801 5800 5798 5797 5796 5795 5794 5794 5795 5795 5796 5797 5798 5800 5801 5804 5806 5809 5812 5815 5818